Year,Month,Day,Hour,Minute,Value (Times are PST for temperature in C)
2013,04,06,00,00,9.00
2013,04,06,00,01,9.00
2013,04,06,00,02,9.00
2013,04,06,00,03,9.00
2013,04,06,00,04,9.00
2013,04,06,00,05,9.10
2013,04,06,00,06,9.10
2013,04,06,00,07,9.10
2013,04,06,00,08,9.10
2013,04,06,00,09,9.10
2013,04,06,00,10,9.10
2013,04,06,00,11,9.10
2013,04,06,00,12,9.10
2013,04,06,00,13,9.10
2013,04,06,00,14,9.10
2013,04,06,00,15,9.10
2013,04,06,00,16,9.10
2013,04,06,00,17,9.10
2013,04,06,00,18,9.10
2013,04,06,00,19,9.10
2013,04,06,00,20,9.10
2013,04,06,00,21,9.20
2013,04,06,00,22,9.20
2013,04,06,00,23,9.20
2013,04,06,00,24,9.20
2013,04,06,00,25,9.20
2013,04,06,00,26,9.20
2013,04,06,00,27,9.20
2013,04,06,00,28,9.20
2013,04,06,00,29,9.20
2013,04,06,00,30,9.20
2013,04,06,00,31,9.20
2013,04,06,00,32,9.20
2013,04,06,00,33,9.20
2013,04,06,00,34,9.20
2013,04,06,00,35,9.20
2013,04,06,00,36,9.20
2013,04,06,00,37,9.20
2013,04,06,00,38,9.20
2013,04,06,00,39,9.20
2013,04,06,00,40,9.20
2013,04,06,00,41,9.20
2013,04,06,00,42,9.20
2013,04,06,00,43,9.20
2013,04,06,00,44,9.20
2013,04,06,00,45,9.20
2013,04,06,00,46,9.20
2013,04,06,00,47,9.20
2013,04,06,00,48,9.20
2013,04,06,00,49,9.20
2013,04,06,00,50,9.20
2013,04,06,00,51,9.20
2013,04,06,00,52,9.20
2013,04,06,00,53,9.20
2013,04,06,00,54,9.30
2013,04,06,00,55,9.30
2013,04,06,00,56,9.30
2013,04,06,00,57,9.30
2013,04,06,00,58,9.30
2013,04,06,00,59,9.30
2013,04,06,01,00,9.30
2013,04,06,01,01,9.40
2013,04,06,01,02,9.40
2013,04,06,01,03,9.40
2013,04,06,01,04,9.40
2013,04,06,01,05,9.40
2013,04,06,01,06,9.40
2013,04,06,01,07,9.50
2013,04,06,01,08,9.50
2013,04,06,01,09,9.50
2013,04,06,01,10,9.50
2013,04,06,01,11,9.50
2013,04,06,01,12,9.50
2013,04,06,01,13,9.50
2013,04,06,01,14,9.40
2013,04,06,01,15,9.40
2013,04,06,01,16,9.40
2013,04,06,01,17,9.40
2013,04,06,01,18,9.30
2013,04,06,01,19,9.20
2013,04,06,01,20,9.20
2013,04,06,01,21,9.20
2013,04,06,01,22,9.20
2013,04,06,01,23,9.20
2013,04,06,01,24,9.20
2013,04,06,01,25,9.20
2013,04,06,01,26,9.20
2013,04,06,01,27,9.20
2013,04,06,01,28,9.20
2013,04,06,01,29,9.20
2013,04,06,01,30,9.20
2013,04,06,01,31,9.20
2013,04,06,01,32,9.20
2013,04,06,01,33,9.20
2013,04,06,01,34,9.20
2013,04,06,01,35,9.20
2013,04,06,01,36,9.20
2013,04,06,01,37,9.20
2013,04,06,01,38,9.20
2013,04,06,01,39,9.20
2013,04,06,01,40,9.20
2013,04,06,01,41,9.20
2013,04,06,01,42,9.20
2013,04,06,01,43,9.20
2013,04,06,01,44,9.20
2013,04,06,01,45,9.20
2013,04,06,01,46,9.20
2013,04,06,01,47,9.20
2013,04,06,01,48,9.20
2013,04,06,01,49,9.20
2013,04,06,01,50,9.20
2013,04,06,01,51,9.20
2013,04,06,01,52,9.20
2013,04,06,01,53,9.20
2013,04,06,01,54,9.20
2013,04,06,01,55,9.20
2013,04,06,01,56,9.20
2013,04,06,01,57,9.20
2013,04,06,01,58,9.20
2013,04,06,01,59,9.20
2013,04,06,02,00,9.20
2013,04,06,02,01,9.20
2013,04,06,02,02,9.20
2013,04,06,02,03,9.20
2013,04,06,02,04,9.30
2013,04,06,02,05,9.30
2013,04,06,02,06,9.30
2013,04,06,02,07,9.30
2013,04,06,02,08,9.30
2013,04,06,02,09,9.30
2013,04,06,02,10,9.40
2013,04,06,02,11,9.40
2013,04,06,02,12,9.40
2013,04,06,02,13,9.40
2013,04,06,02,14,9.40
2013,04,06,02,15,9.40
2013,04,06,02,16,9.50
2013,04,06,02,17,9.50
2013,04,06,02,18,9.50
2013,04,06,02,19,9.50
2013,04,06,02,20,9.50
2013,04,06,02,21,9.50
2013,04,06,02,22,9.50
2013,04,06,02,23,9.50
2013,04,06,02,24,9.60
2013,04,06,02,25,9.60
2013,04,06,02,26,9.60
2013,04,06,02,27,9.60
2013,04,06,02,28,9.60
2013,04,06,02,29,9.60
2013,04,06,02,30,9.60
2013,04,06,02,31,9.60
2013,04,06,02,32,9.70
2013,04,06,02,33,9.70
2013,04,06,02,34,9.70
2013,04,06,02,35,9.70
2013,04,06,02,36,9.70
2013,04,06,02,37,9.70
2013,04,06,02,38,9.70
2013,04,06,02,39,9.70
2013,04,06,02,40,9.70
2013,04,06,02,41,9.70
2013,04,06,02,42,9.70
2013,04,06,02,43,9.70
2013,04,06,02,44,9.70
2013,04,06,02,45,9.70
2013,04,06,02,46,9.70
2013,04,06,02,47,9.70
2013,04,06,02,48,9.70
2013,04,06,02,49,9.70
2013,04,06,02,50,9.70
2013,04,06,02,51,9.70
2013,04,06,02,52,9.70
2013,04,06,02,53,9.70
2013,04,06,02,54,9.60
2013,04,06,02,55,9.60
2013,04,06,02,56,9.60
2013,04,06,02,57,9.60
2013,04,06,02,58,9.60
2013,04,06,02,59,9.60
2013,04,06,03,00,9.60
2013,04,06,03,01,9.60
2013,04,06,03,02,9.60
2013,04,06,03,03,9.60
2013,04,06,03,04,9.60
2013,04,06,03,05,9.60
2013,04,06,03,06,9.60
2013,04,06,03,07,9.50
2013,04,06,03,08,9.50
2013,04,06,03,09,9.50
2013,04,06,03,10,9.50
2013,04,06,03,11,9.50
2013,04,06,03,12,9.50
2013,04,06,03,13,9.50
2013,04,06,03,14,9.60
2013,04,06,03,15,9.60
2013,04,06,03,16,9.60
2013,04,06,03,17,9.50
2013,04,06,03,18,9.50
2013,04,06,03,19,9.50
2013,04,06,03,20,9.50
2013,04,06,03,21,9.50
2013,04,06,03,22,9.50
2013,04,06,03,23,9.40
2013,04,06,03,24,9.40
2013,04,06,03,25,9.40
2013,04,06,03,26,9.40
2013,04,06,03,27,9.40
2013,04,06,03,28,9.40
2013,04,06,03,29,9.40
2013,04,06,03,30,9.40
2013,04,06,03,31,9.30
2013,04,06,03,32,9.30
2013,04,06,03,33,9.30
2013,04,06,03,34,9.30
2013,04,06,03,35,9.30
2013,04,06,03,36,9.30
2013,04,06,03,37,9.30
2013,04,06,03,38,9.30
2013,04,06,03,39,9.30
2013,04,06,03,40,9.30
2013,04,06,03,41,9.40
2013,04,06,03,42,9.40
2013,04,06,03,43,9.40
2013,04,06,03,44,9.40
2013,04,06,03,45,9.30
2013,04,06,03,46,9.30
2013,04,06,03,47,9.30
2013,04,06,03,48,9.30
2013,04,06,03,49,9.30
2013,04,06,03,50,9.30
2013,04,06,03,51,9.20
2013,04,06,03,52,9.20
2013,04,06,03,53,9.20
2013,04,06,03,54,9.20
2013,04,06,03,55,9.20
2013,04,06,03,56,9.20
2013,04,06,03,57,9.20
2013,04,06,03,58,9.20
2013,04,06,03,59,9.20
2013,04,06,04,00,9.20
2013,04,06,04,01,9.20
2013,04,06,04,02,9.20
2013,04,06,04,03,9.20
2013,04,06,04,04,9.20
2013,04,06,04,05,9.20
2013,04,06,04,06,9.20
2013,04,06,04,07,9.20
2013,04,06,04,08,9.20
2013,04,06,04,09,9.20
2013,04,06,04,10,9.10
2013,04,06,04,11,9.10
2013,04,06,04,12,9.00
2013,04,06,04,13,9.00
2013,04,06,04,14,8.90
2013,04,06,04,15,8.90
2013,04,06,04,16,8.90
2013,04,06,04,17,8.90
2013,04,06,04,18,8.80
2013,04,06,04,19,8.80
2013,04,06,04,20,8.80
2013,04,06,04,21,8.80
2013,04,06,04,22,8.80
2013,04,06,04,23,8.80
2013,04,06,04,24,8.70
2013,04,06,04,25,8.70
2013,04,06,04,26,8.70
2013,04,06,04,27,8.70
2013,04,06,04,28,8.60
2013,04,06,04,29,8.60
2013,04,06,04,30,8.60
2013,04,06,04,31,8.50
2013,04,06,04,32,8.50
2013,04,06,04,33,8.50
2013,04,06,04,34,8.40
2013,04,06,04,35,8.40
2013,04,06,04,36,8.40
2013,04,06,04,37,8.40
2013,04,06,04,38,8.40
2013,04,06,04,39,8.30
2013,04,06,04,40,8.30
2013,04,06,04,41,8.30
2013,04,06,04,42,8.30
2013,04,06,04,43,8.20
2013,04,06,04,44,8.20
2013,04,06,04,45,8.20
2013,04,06,04,46,8.20
2013,04,06,04,47,8.20
2013,04,06,04,48,8.20
2013,04,06,04,49,8.20
2013,04,06,04,50,8.20
2013,04,06,04,51,8.10
2013,04,06,04,52,8.10
2013,04,06,04,53,8.10
2013,04,06,04,54,8.10
2013,04,06,04,55,8.10
2013,04,06,04,56,8.10
2013,04,06,04,57,8.00
2013,04,06,04,58,8.00
2013,04,06,04,59,8.00
2013,04,06,05,00,8.00
2013,04,06,05,01,8.00
2013,04,06,05,02,8.00
2013,04,06,05,03,8.00
2013,04,06,05,04,8.00
2013,04,06,05,05,7.90
2013,04,06,05,06,7.90
2013,04,06,05,07,7.90
2013,04,06,05,08,7.90
2013,04,06,05,09,7.90
2013,04,06,05,10,7.90
2013,04,06,05,11,7.90
2013,04,06,05,12,7.90
2013,04,06,05,13,7.90
2013,04,06,05,14,7.90
2013,04,06,05,15,7.80
2013,04,06,05,16,7.80
2013,04,06,05,17,7.80
2013,04,06,05,18,7.80
2013,04,06,05,19,7.80
2013,04,06,05,20,7.80
2013,04,06,05,21,7.80
2013,04,06,05,22,7.80
2013,04,06,05,23,7.80
2013,04,06,05,24,7.80
2013,04,06,05,25,7.80
2013,04,06,05,26,7.80
2013,04,06,05,27,7.80
2013,04,06,05,28,7.80
2013,04,06,05,29,7.80
2013,04,06,05,30,7.80
2013,04,06,05,31,7.80
2013,04,06,05,32,7.80
2013,04,06,05,33,7.80
2013,04,06,05,34,7.80
2013,04,06,05,35,7.80
2013,04,06,05,36,7.80
2013,04,06,05,37,7.80
2013,04,06,05,38,7.80
2013,04,06,05,39,7.80
2013,04,06,05,40,7.80
2013,04,06,05,41,7.80
2013,04,06,05,42,7.80
2013,04,06,05,43,7.80
2013,04,06,05,44,7.80
2013,04,06,05,45,7.80
2013,04,06,05,46,7.80
2013,04,06,05,47,7.80
2013,04,06,05,48,7.80
2013,04,06,05,49,7.80
2013,04,06,05,50,7.80
2013,04,06,05,51,7.80
2013,04,06,05,52,7.80
2013,04,06,05,53,7.80
2013,04,06,05,54,7.80
2013,04,06,05,55,7.80
2013,04,06,05,56,7.80
2013,04,06,05,57,7.80
2013,04,06,05,58,7.80
2013,04,06,05,59,7.80
2013,04,06,06,00,7.80
2013,04,06,06,01,7.90
2013,04,06,06,02,7.90
2013,04,06,06,03,7.90
2013,04,06,06,04,7.90
2013,04,06,06,05,7.90
2013,04,06,06,06,7.90
2013,04,06,06,07,7.90
2013,04,06,06,08,7.80
2013,04,06,06,09,7.80
2013,04,06,06,10,7.80
2013,04,06,06,11,7.80
2013,04,06,06,12,7.80
2013,04,06,06,13,7.80
2013,04,06,06,14,7.80
2013,04,06,06,15,7.80
2013,04,06,06,16,7.80
2013,04,06,06,17,7.80
2013,04,06,06,18,7.80
2013,04,06,06,19,7.80
2013,04,06,06,20,7.80
2013,04,06,06,21,7.80
2013,04,06,06,22,7.80
2013,04,06,06,23,7.80
2013,04,06,06,24,7.80
2013,04,06,06,25,7.80
2013,04,06,06,26,7.80
2013,04,06,06,27,7.80
2013,04,06,06,28,7.80
2013,04,06,06,29,7.80
2013,04,06,06,30,7.80
2013,04,06,06,31,7.80
2013,04,06,06,32,7.80
2013,04,06,06,33,7.80
2013,04,06,06,34,7.90
2013,04,06,06,35,7.90
2013,04,06,06,36,7.90
2013,04,06,06,37,7.90
2013,04,06,06,38,7.80
2013,04,06,06,39,7.80
2013,04,06,06,40,7.80
2013,04,06,06,41,7.80
2013,04,06,06,42,7.80
2013,04,06,06,43,7.80
2013,04,06,06,44,7.80
2013,04,06,06,45,7.80
2013,04,06,06,46,7.80
2013,04,06,06,47,7.80
2013,04,06,06,48,7.80
2013,04,06,06,49,7.80
2013,04,06,06,50,7.90
2013,04,06,06,51,7.90
2013,04,06,06,52,7.90
2013,04,06,06,53,7.90
2013,04,06,06,54,8.00
2013,04,06,06,55,8.00
2013,04,06,06,56,8.00
2013,04,06,06,57,8.00
2013,04,06,06,58,8.10
2013,04,06,06,59,8.10
2013,04,06,07,00,8.10
2013,04,06,07,01,8.10
2013,04,06,07,02,8.10
2013,04,06,07,03,8.10
2013,04,06,07,04,8.20
2013,04,06,07,05,8.20
2013,04,06,07,06,8.20
2013,04,06,07,07,8.20
2013,04,06,07,08,8.20
2013,04,06,07,09,8.20
2013,04,06,07,10,8.20
2013,04,06,07,11,8.20
2013,04,06,07,12,8.20
2013,04,06,07,13,8.20
2013,04,06,07,14,8.20
2013,04,06,07,15,8.20
2013,04,06,07,16,8.20
2013,04,06,07,17,8.20
2013,04,06,07,18,8.20
2013,04,06,07,19,8.20
2013,04,06,07,20,8.20
2013,04,06,07,21,8.10
2013,04,06,07,22,8.10
2013,04,06,07,23,8.10
2013,04,06,07,24,8.10
2013,04,06,07,25,8.10
2013,04,06,07,26,8.10
2013,04,06,07,27,8.10
2013,04,06,07,28,8.10
2013,04,06,07,29,8.10
2013,04,06,07,30,8.10
2013,04,06,07,31,8.10
2013,04,06,07,32,8.10
2013,04,06,07,33,8.10
2013,04,06,07,34,8.10
2013,04,06,07,35,8.10
2013,04,06,07,36,8.20
2013,04,06,07,37,8.20
2013,04,06,07,38,8.20
2013,04,06,07,39,8.20
2013,04,06,07,40,8.20
2013,04,06,07,41,8.20
2013,04,06,07,42,8.20
2013,04,06,07,43,8.20
2013,04,06,07,44,8.30
2013,04,06,07,45,8.30
2013,04,06,07,46,8.30
2013,04,06,07,47,8.30
2013,04,06,07,48,8.40
2013,04,06,07,49,8.40
2013,04,06,07,50,8.40
2013,04,06,07,51,8.40
2013,04,06,07,52,8.40
2013,04,06,07,53,8.50
2013,04,06,07,54,8.50
2013,04,06,07,55,8.50
2013,04,06,07,56,8.50
2013,04,06,07,57,8.60
2013,04,06,07,58,8.60
2013,04,06,07,59,8.60
2013,04,06,08,00,8.60
2013,04,06,08,01,8.70
2013,04,06,08,02,8.70
2013,04,06,08,03,8.70
2013,04,06,08,04,8.70
2013,04,06,08,05,8.70
2013,04,06,08,06,8.70
2013,04,06,08,07,8.70
2013,04,06,08,08,8.70
2013,04,06,08,09,8.70
2013,04,06,08,10,8.70
2013,04,06,08,11,8.80
2013,04,06,08,12,8.80
2013,04,06,08,13,8.80
2013,04,06,08,14,8.80
2013,04,06,08,15,8.90
2013,04,06,08,16,8.90
2013,04,06,08,17,8.90
2013,04,06,08,18,8.90
2013,04,06,08,19,8.90
2013,04,06,08,20,9.00
2013,04,06,08,21,9.00
2013,04,06,08,22,9.00
2013,04,06,08,23,9.10
2013,04,06,08,24,9.10
2013,04,06,08,25,9.10
2013,04,06,08,26,9.10
2013,04,06,08,27,9.20
2013,04,06,08,28,9.20
2013,04,06,08,29,9.20
2013,04,06,08,30,9.20
2013,04,06,08,31,9.20
2013,04,06,08,32,9.20
2013,04,06,08,33,9.20
2013,04,06,08,34,9.20
2013,04,06,08,35,9.20
2013,04,06,08,36,9.20
2013,04,06,08,37,9.20
2013,04,06,08,38,9.20
2013,04,06,08,39,9.20
2013,04,06,08,40,9.20
2013,04,06,08,41,9.30
2013,04,06,08,42,9.30
2013,04,06,08,43,9.30
2013,04,06,08,44,9.40
2013,04,06,08,45,9.40
2013,04,06,08,46,9.40
2013,04,06,08,47,9.50
2013,04,06,08,48,9.50
2013,04,06,08,49,9.50
2013,04,06,08,50,9.50
2013,04,06,08,51,9.50
2013,04,06,08,52,9.50
2013,04,06,08,53,9.40
2013,04,06,08,54,9.40
2013,04,06,08,55,9.50
2013,04,06,08,56,9.40
2013,04,06,08,57,9.40
2013,04,06,08,58,9.40
2013,04,06,08,59,9.40
2013,04,06,09,00,9.40
2013,04,06,09,01,9.40
2013,04,06,09,02,9.50
2013,04,06,09,03,9.50
2013,04,06,09,04,9.50
2013,04,06,09,05,9.50
2013,04,06,09,06,9.50
2013,04,06,09,07,9.60
2013,04,06,09,08,9.60
2013,04,06,09,09,9.60
2013,04,06,09,10,9.60
2013,04,06,09,11,9.60
2013,04,06,09,12,9.60
2013,04,06,09,13,9.50
2013,04,06,09,14,9.50
2013,04,06,09,15,9.50
2013,04,06,09,16,9.50
2013,04,06,09,17,9.60
2013,04,06,09,18,9.60
2013,04,06,09,19,9.50
2013,04,06,09,20,9.50
2013,04,06,09,21,9.50
2013,04,06,09,22,9.50
2013,04,06,09,23,9.40
2013,04,06,09,24,9.40
2013,04,06,09,25,9.40
2013,04,06,09,26,9.30
2013,04,06,09,27,9.30
2013,04,06,09,28,9.20
2013,04,06,09,29,9.30
2013,04,06,09,30,9.30
2013,04,06,09,31,9.30
2013,04,06,09,32,9.40
2013,04,06,09,33,9.40
2013,04,06,09,34,9.50
2013,04,06,09,35,9.40
2013,04,06,09,36,9.50
2013,04,06,09,37,9.50
2013,04,06,09,38,9.50
2013,04,06,09,39,9.50
2013,04,06,09,40,9.50
2013,04,06,09,41,9.50
2013,04,06,09,42,9.50
2013,04,06,09,43,9.50
2013,04,06,09,44,9.40
2013,04,06,09,45,9.40
2013,04,06,09,46,9.40
2013,04,06,09,47,9.40
2013,04,06,09,48,9.40
2013,04,06,09,49,9.50
2013,04,06,09,50,9.50
2013,04,06,09,51,9.50
2013,04,06,09,52,9.50
2013,04,06,09,53,9.50
2013,04,06,09,54,9.50
2013,04,06,09,55,9.60
2013,04,06,09,56,9.60
2013,04,06,09,57,9.60
2013,04,06,09,58,9.60
2013,04,06,09,59,9.70
2013,04,06,10,00,9.80
2013,04,06,10,01,9.90
2013,04,06,10,02,9.90
2013,04,06,10,03,9.90
2013,04,06,10,04,9.90
2013,04,06,10,05,9.90
2013,04,06,10,06,9.90
2013,04,06,10,07,9.90
2013,04,06,10,08,9.90
2013,04,06,10,09,9.90
2013,04,06,10,10,9.90
2013,04,06,10,11,9.90
2013,04,06,10,12,9.90
2013,04,06,10,13,9.90
2013,04,06,10,14,9.90
2013,04,06,10,15,9.90
2013,04,06,10,16,10.00
2013,04,06,10,17,10.10
2013,04,06,10,18,10.10
2013,04,06,10,19,10.20
2013,04,06,10,20,10.30
2013,04,06,10,21,10.40
2013,04,06,10,22,10.40
2013,04,06,10,23,10.40
2013,04,06,10,24,10.60
2013,04,06,10,25,10.60
2013,04,06,10,26,10.60
2013,04,06,10,27,10.60
2013,04,06,10,28,10.50
2013,04,06,10,29,10.60
2013,04,06,10,30,10.60
2013,04,06,10,31,10.50
2013,04,06,10,32,10.40
2013,04,06,10,33,10.40
2013,04,06,10,34,10.50
2013,04,06,10,35,10.50
2013,04,06,10,36,10.40
2013,04,06,10,37,10.50
2013,04,06,10,38,10.60
2013,04,06,10,39,10.60
2013,04,06,10,40,10.60
2013,04,06,10,41,10.60
2013,04,06,10,42,10.60
2013,04,06,10,43,10.70
2013,04,06,10,44,10.80
2013,04,06,10,45,10.80
2013,04,06,10,46,10.90
2013,04,06,10,47,10.90
2013,04,06,10,48,10.90
2013,04,06,10,49,10.90
2013,04,06,10,50,10.90
2013,04,06,10,51,10.90
2013,04,06,10,52,10.90
2013,04,06,10,53,10.90
2013,04,06,10,54,10.90
2013,04,06,10,55,10.80
2013,04,06,10,56,10.90
2013,04,06,10,57,10.90
2013,04,06,10,58,10.80
2013,04,06,10,59,10.80
2013,04,06,11,00,10.70
2013,04,06,11,01,10.60
2013,04,06,11,02,10.60
2013,04,06,11,03,10.70
2013,04,06,11,04,10.70
2013,04,06,11,05,10.70
2013,04,06,11,06,10.80
2013,04,06,11,07,10.90
2013,04,06,11,08,10.90
2013,04,06,11,09,10.90
2013,04,06,11,10,10.90
2013,04,06,11,11,10.90
2013,04,06,11,12,11.00
2013,04,06,11,13,11.10
2013,04,06,11,14,11.10
2013,04,06,11,15,11.10
2013,04,06,11,16,11.20
2013,04,06,11,17,11.30
2013,04,06,11,18,11.40
2013,04,06,11,19,11.40
2013,04,06,11,20,11.40
2013,04,06,11,21,11.40
2013,04,06,11,22,11.50
2013,04,06,11,23,11.50
2013,04,06,11,24,11.40
2013,04,06,11,25,11.30
2013,04,06,11,26,11.20
2013,04,06,11,27,11.20
2013,04,06,11,28,11.30
2013,04,06,11,29,11.30
2013,04,06,11,30,11.40
2013,04,06,11,31,11.30
2013,04,06,11,32,11.30
2013,04,06,11,33,11.40
2013,04,06,11,34,11.40
2013,04,06,11,35,11.40
2013,04,06,11,36,11.40
2013,04,06,11,37,11.40
2013,04,06,11,38,11.50
2013,04,06,11,39,11.60
2013,04,06,11,40,11.60
2013,04,06,11,41,11.70
2013,04,06,11,42,11.60
2013,04,06,11,43,11.60
2013,04,06,11,44,11.50
2013,04,06,11,45,11.40
2013,04,06,11,46,11.40
2013,04,06,11,47,11.50
2013,04,06,11,48,11.60
2013,04,06,11,49,11.60
2013,04,06,11,50,11.60
2013,04,06,11,51,11.60
2013,04,06,11,52,11.60
2013,04,06,11,53,11.60
2013,04,06,11,54,11.70
2013,04,06,11,55,11.80
2013,04,06,11,56,11.80
2013,04,06,11,57,11.90
2013,04,06,11,58,11.90
2013,04,06,11,59,11.80
2013,04,06,12,00,11.70
2013,04,06,12,01,11.60
2013,04,06,12,02,11.50
2013,04,06,12,03,11.40
2013,04,06,12,04,11.40
2013,04,06,12,05,11.50
2013,04,06,12,06,11.60
2013,04,06,12,07,11.80
2013,04,06,12,08,11.80
2013,04,06,12,09,11.80
2013,04,06,12,10,11.80
2013,04,06,12,11,11.70
2013,04,06,12,12,11.70
2013,04,06,12,13,11.70
2013,04,06,12,14,11.70
2013,04,06,12,15,11.80
2013,04,06,12,16,11.90
2013,04,06,12,17,12.00
2013,04,06,12,18,12.10
2013,04,06,12,19,12.10
2013,04,06,12,20,12.20
2013,04,06,12,21,12.20
2013,04,06,12,22,12.20
2013,04,06,12,23,12.10
2013,04,06,12,24,12.00
2013,04,06,12,25,12.00
2013,04,06,12,26,12.00
2013,04,06,12,27,12.10
2013,04,06,12,28,12.20
2013,04,06,12,29,12.20
2013,04,06,12,30,12.20
2013,04,06,12,31,12.10
2013,04,06,12,32,12.10
2013,04,06,12,33,12.10
2013,04,06,12,34,12.20
2013,04,06,12,35,12.30
2013,04,06,12,36,12.30
2013,04,06,12,37,12.20
2013,04,06,12,38,12.20
2013,04,06,12,39,12.20
2013,04,06,12,40,12.20
2013,04,06,12,41,12.20
2013,04,06,12,42,12.20
2013,04,06,12,43,12.20
2013,04,06,12,44,12.30
2013,04,06,12,45,12.30
2013,04,06,12,46,12.30
2013,04,06,12,47,12.30
2013,04,06,12,48,12.40
2013,04,06,12,49,12.40
2013,04,06,12,50,12.50
2013,04,06,12,51,12.50
2013,04,06,12,52,12.60
2013,04,06,12,53,12.60
2013,04,06,12,54,12.70
2013,04,06,12,55,12.70
2013,04,06,12,56,12.60
2013,04,06,12,57,12.60
2013,04,06,12,58,12.60
2013,04,06,12,59,12.50
2013,04,06,13,00,12.50
2013,04,06,13,01,12.60
2013,04,06,13,02,12.60
2013,04,06,13,03,12.60
2013,04,06,13,04,12.60
2013,04,06,13,05,12.60
2013,04,06,13,06,12.60
2013,04,06,13,07,12.50
2013,04,06,13,08,12.50
2013,04,06,13,09,12.50
2013,04,06,13,10,12.60
2013,04,06,13,11,12.60
2013,04,06,13,12,12.70
2013,04,06,13,13,12.80
2013,04,06,13,14,12.80
2013,04,06,13,15,12.80
2013,04,06,13,16,12.80
2013,04,06,13,17,12.70
2013,04,06,13,18,12.60
2013,04,06,13,19,12.60
2013,04,06,13,20,12.60
2013,04,06,13,21,12.70
2013,04,06,13,22,12.70
2013,04,06,13,23,12.60
2013,04,06,13,24,12.50
2013,04,06,13,25,12.40
2013,04,06,13,26,12.40
2013,04,06,13,27,12.50
2013,04,06,13,28,12.50
2013,04,06,13,29,12.70
2013,04,06,13,30,12.80
2013,04,06,13,31,12.80
2013,04,06,13,32,12.80
2013,04,06,13,33,12.80
2013,04,06,13,34,12.70
2013,04,06,13,35,12.70
2013,04,06,13,36,12.70
2013,04,06,13,37,12.80
2013,04,06,13,38,12.80
2013,04,06,13,39,12.80
2013,04,06,13,40,12.80
2013,04,06,13,41,12.80
2013,04,06,13,42,12.80
2013,04,06,13,43,12.70
2013,04,06,13,44,12.70
2013,04,06,13,45,12.60
2013,04,06,13,46,12.50
2013,04,06,13,47,12.60
2013,04,06,13,48,12.70
2013,04,06,13,49,12.80
2013,04,06,13,50,12.90
2013,04,06,13,51,12.90
2013,04,06,13,52,12.80
2013,04,06,13,53,12.90
2013,04,06,13,54,12.90
2013,04,06,13,55,13.00
2013,04,06,13,56,12.90
2013,04,06,13,57,13.00
2013,04,06,13,58,13.00
2013,04,06,13,59,13.00
2013,04,06,14,00,13.10
2013,04,06,14,01,13.20
2013,04,06,14,02,13.10
2013,04,06,14,03,13.00
2013,04,06,14,04,12.90
2013,04,06,14,05,12.90
2013,04,06,14,06,12.80
2013,04,06,14,07,12.90
2013,04,06,14,08,13.00
2013,04,06,14,09,13.10
2013,04,06,14,10,13.20
2013,04,06,14,11,13.30
2013,04,06,14,12,13.50
2013,04,06,14,13,13.60
2013,04,06,14,14,13.60
2013,04,06,14,15,13.40
2013,04,06,14,16,13.20
2013,04,06,14,17,13.30
2013,04,06,14,18,13.20
2013,04,06,14,19,13.10
2013,04,06,14,20,13.20
2013,04,06,14,21,13.20
2013,04,06,14,22,13.20
2013,04,06,14,23,13.30
2013,04,06,14,24,13.50
2013,04,06,14,25,13.60
2013,04,06,14,26,13.50
2013,04,06,14,27,13.40
2013,04,06,14,28,13.40
2013,04,06,14,29,13.30
2013,04,06,14,30,13.10
2013,04,06,14,31,13.10
2013,04,06,14,32,13.10
2013,04,06,14,33,13.10
2013,04,06,14,34,13.20
2013,04,06,14,35,13.20
2013,04,06,14,36,13.10
2013,04,06,14,37,13.00
2013,04,06,14,38,12.90
2013,04,06,14,39,12.90
2013,04,06,14,40,12.80
2013,04,06,14,41,12.80
2013,04,06,14,42,12.80
2013,04,06,14,43,12.70
2013,04,06,14,44,12.70
2013,04,06,14,45,12.60
2013,04,06,14,46,12.60
2013,04,06,14,47,12.60
2013,04,06,14,48,12.70
2013,04,06,14,49,12.70
2013,04,06,14,50,12.70
2013,04,06,14,51,12.60
2013,04,06,14,52,12.60
2013,04,06,14,53,12.80
2013,04,06,14,54,12.80
2013,04,06,14,55,12.80
2013,04,06,14,56,12.80
2013,04,06,14,57,12.80
2013,04,06,14,58,12.70
2013,04,06,14,59,12.60
2013,04,06,15,00,12.40
2013,04,06,15,01,12.20
2013,04,06,15,02,12.10
2013,04,06,15,03,12.00
2013,04,06,15,04,12.00
2013,04,06,15,05,11.90
2013,04,06,15,06,11.90
2013,04,06,15,07,11.90
2013,04,06,15,08,11.90
2013,04,06,15,09,12.00
2013,04,06,15,10,12.00
2013,04,06,15,11,12.10
2013,04,06,15,12,12.10
2013,04,06,15,13,12.20
2013,04,06,15,14,12.30
2013,04,06,15,15,12.10
2013,04,06,15,16,12.00
2013,04,06,15,17,12.00
2013,04,06,15,18,12.10
2013,04,06,15,19,12.10
2013,04,06,15,20,12.20
2013,04,06,15,21,12.20
2013,04,06,15,22,12.20
2013,04,06,15,23,12.20
2013,04,06,15,24,12.20
2013,04,06,15,25,12.20
2013,04,06,15,26,12.20
2013,04,06,15,27,12.20
2013,04,06,15,28,12.20
2013,04,06,15,29,12.20
2013,04,06,15,30,12.20
2013,04,06,15,31,12.10
2013,04,06,15,32,12.00
2013,04,06,15,33,12.00
2013,04,06,15,34,12.00
2013,04,06,15,35,11.80
2013,04,06,15,36,11.80
2013,04,06,15,37,11.70
2013,04,06,15,38,11.70
2013,04,06,15,39,11.60
2013,04,06,15,40,11.50
2013,04,06,15,41,11.40
2013,04,06,15,42,11.40
2013,04,06,15,43,11.40
2013,04,06,15,44,11.40
2013,04,06,15,45,11.40
2013,04,06,15,46,11.40
2013,04,06,15,47,11.40
2013,04,06,15,48,11.40
2013,04,06,15,49,11.40
2013,04,06,15,50,11.40
2013,04,06,15,51,11.30
2013,04,06,15,52,11.30
2013,04,06,15,53,11.20
2013,04,06,15,54,11.10
2013,04,06,15,55,11.10
2013,04,06,15,56,11.00
2013,04,06,15,57,10.90
2013,04,06,15,58,10.90
2013,04,06,15,59,10.90
2013,04,06,16,00,10.80
2013,04,06,16,01,10.70
2013,04,06,16,02,10.60
2013,04,06,16,03,10.60
2013,04,06,16,04,10.40
2013,04,06,16,05,10.40
2013,04,06,16,06,10.30
2013,04,06,16,07,10.20
2013,04,06,16,08,10.20
2013,04,06,16,09,10.10
2013,04,06,16,10,10.10
2013,04,06,16,11,10.00
2013,04,06,16,12,9.80
2013,04,06,16,13,9.70
2013,04,06,16,14,9.70
2013,04,06,16,15,9.60
2013,04,06,16,16,9.60
2013,04,06,16,17,9.50
2013,04,06,16,18,9.50
2013,04,06,16,19,9.50
2013,04,06,16,20,9.50
2013,04,06,16,21,9.50
2013,04,06,16,22,9.40
2013,04,06,16,23,9.50
2013,04,06,16,24,9.50
2013,04,06,16,25,9.50
2013,04,06,16,26,9.50
2013,04,06,16,27,9.40
2013,04,06,16,28,9.50
2013,04,06,16,29,9.50
2013,04,06,16,30,9.50
2013,04,06,16,31,9.50
2013,04,06,16,32,9.50
2013,04,06,16,33,9.50
2013,04,06,16,34,9.40
2013,04,06,16,35,9.40
2013,04,06,16,36,9.40
2013,04,06,16,37,9.40
2013,04,06,16,38,9.40
2013,04,06,16,39,9.40
2013,04,06,16,40,9.30
2013,04,06,16,41,9.40
2013,04,06,16,42,9.40
2013,04,06,16,43,9.40
2013,04,06,16,44,9.40
2013,04,06,16,45,9.40
2013,04,06,16,46,9.40
2013,04,06,16,47,9.50
2013,04,06,16,48,9.60
2013,04,06,16,49,9.70
2013,04,06,16,50,9.70
2013,04,06,16,51,9.60
2013,04,06,16,52,9.50
2013,04,06,16,53,9.50
2013,04,06,16,54,9.50
2013,04,06,16,55,9.50
2013,04,06,16,56,9.60
2013,04,06,16,57,9.60
2013,04,06,16,58,9.70
2013,04,06,16,59,9.70
2013,04,06,17,00,9.70
2013,04,06,17,01,9.60
2013,04,06,17,02,9.60
2013,04,06,17,03,9.60
2013,04,06,17,04,9.50
2013,04,06,17,05,9.50
2013,04,06,17,06,9.60
2013,04,06,17,07,9.60
2013,04,06,17,08,9.70
2013,04,06,17,09,9.70
2013,04,06,17,10,9.70
2013,04,06,17,11,9.70
2013,04,06,17,12,9.70
2013,04,06,17,13,9.70
2013,04,06,17,14,9.70
2013,04,06,17,15,9.70
2013,04,06,17,16,9.70
2013,04,06,17,17,9.70
2013,04,06,17,18,9.70
2013,04,06,17,19,9.80
2013,04,06,17,20,9.80
2013,04,06,17,21,9.90
2013,04,06,17,22,9.90
2013,04,06,17,23,9.90
2013,04,06,17,24,9.90
2013,04,06,17,25,9.90
2013,04,06,17,26,9.90
2013,04,06,17,27,9.90
2013,04,06,17,28,9.90
2013,04,06,17,29,9.80
2013,04,06,17,30,9.80
2013,04,06,17,31,9.80
2013,04,06,17,32,9.80
2013,04,06,17,33,9.80
2013,04,06,17,34,9.70
2013,04,06,17,35,9.70
2013,04,06,17,36,9.70
2013,04,06,17,37,9.60
2013,04,06,17,38,9.70
2013,04,06,17,39,9.70
2013,04,06,17,40,9.70
2013,04,06,17,41,9.70
2013,04,06,17,42,9.70
2013,04,06,17,43,9.60
2013,04,06,17,44,9.60
2013,04,06,17,45,9.50
2013,04,06,17,46,9.50
2013,04,06,17,47,9.50
2013,04,06,17,48,9.50
2013,04,06,17,49,9.50
2013,04,06,17,50,9.50